Date String (YYYY-MM-DD hh:mm:ss) UTC,Instrument flags,absolute air pressure of the measurement (hPa),sample flow rate (lpm),inlet stack bypass flow (lpm),air temperature of the measurement (°C),ambient temperature measured by the external sensor (°C),aerosol sample conditioner tube jacket temperature (°C),OPC LED temperature (°C),internal box temperature (°C),relative humidity of the measurement (%),span deviation,mass concentration of particles derived from Lorenz-Mie calculation of OPC scattering (μg/m³),mass concentration of particles derived from Lorenz-Mie calculation of OPC scattering (μg/m³),mass concentration of particles derived from Lorenz-Mie calculation of OPC scattering (μg/m³)
DateTimeUTC,F1_M11,P_M11,Q1_M11,Q2_M11,T1_M11,T2_M11,T3_M11,T4_M11,T5_M11,U1_M11,ZSPAN_M11,X0_M11,X2_M11,X1_M11
2023-10-01 12:00:00,SystemResetWarning,0826.6,4.99,000.00,028.8,027.5,000.0,037.2,030.5,17.7,0000.0,0007.40,0002.82,0001.93
2023-10-01 12:01:00,SystemResetWarning,0826.6,4.99,000.00,028.8,027.5,000.0,037.2,030.5,17.8,0000.0,0007.14,0002.82,0001.95
2023-10-01 12:02:00,SystemResetWarning,0826.6,5.00,000.00,028.8,027.5,000.0,037.2,030.5,17.8,0000.0,0007.31,0002.82,0001.96
2023-10-01 12:03:00,SystemResetWarning,0826.6,4.99,000.00,028.8,027.4,000.0,037.2,030.5,17.7,0000.0,0006.82,0002.86,0001.95
2023-10-01 12:04:00,SystemResetWarning,0826.6,5.00,000.00,028.8,025.8,000.0,037.2,030.4,17.8,0000.0,0006.80,0002.83,0001.94
2023-10-01 12:05:00,SystemResetWarning,0826.6,5.00,000.00,028.7,024.6,000.0,037.1,030.2,17.9,0000.0,0006.50,0002.81,0001.93
2023-10-01 12:06:00,SystemResetWarning,0826.6,5.01,000.00,028.7,024.5,000.0,037.1,030.1,18.0,0000.0,0006.35,0002.80,0001.92
2023-10-01 12:07:00,SystemResetWarning,0826.6,5.01,000.00,028.5,024.8,000.0,037.1,029.9,18.2,0000.0,0005.63,0002.76,0001.91
2023-10-01 12:08:00,SystemResetWarning,0826.6,5.00,000.00,028.5,025.1,000.0,037.1,029.9,18.3,0000.0,0005.88,0002.83,0001.89
2023-10-01 12:09:00,SystemResetWarning,0826.6,5.00,000.00,028.4,025.5,000.0,037.1,029.9,18.3,0000.0,0006.25,0002.88,0001.89
2023-10-01 12:10:00,SystemResetWarning,0826.6,5.00,000.00,028.4,025.8,000.0,037.0,029.9,18.4,0000.0,0007.02,0002.94,0001.89
2023-10-01 12:11:00,SystemResetWarning,0826.7,5.00,000.00,028.4,026.1,000.0,037.0,030.0,18.4,0000.0,0007.03,0002.92,0001.88
2023-10-01 12:12:00,SystemResetWarning,0826.8,5.00,000.00,028.4,026.3,000.0,037.0,030.0,18.5,0000.0,0007.02,0002.90,0001.87
2023-10-01 12:13:00,SystemResetWarning,0826.8,5.00,000.00,028.4,026.4,000.0,037.0,030.0,18.4,0000.0,0006.89,0002.88,0001.86
2023-10-01 12:14:00,SystemResetWarning,0826.8,5.01,000.00,028.4,026.6,000.0,036.9,030.0,18.3,0000.0,0006.76,0002.78,0001.85
2023-10-01 12:15:00,SystemResetWarning,0826.8,5.00,000.00,028.4,026.7,000.0,036.9,030.1,18.2,0000.0,0006.29,0002.73,0001.85
2023-10-01 12:16:00,SystemResetWarning,0826.8,4.99,000.00,028.4,026.8,000.0,036.9,030.1,18.2,0000.0,0006.13,0002.75,0001.86
2023-10-01 12:17:00,SystemResetWarning,0826.8,4.99,000.00,028.4,026.9,000.0,036.9,030.1,18.2,0000.0,0006.17,0002.72,0001.86
2023-10-01 12:18:00,SystemResetWarning,0826.8,5.00,000.00,028.4,027.0,000.0,036.9,030.1,18.2,0000.0,0006.27,0002.71,0001.87
2023-10-01 12:19:00,SystemResetWarning,0826.8,5.00,000.00,028.4,027.1,000.0,036.9,030.2,18.3,0000.0,0006.25,0002.68,0001.88
2023-10-01 12:20:00,SystemResetWarning,0826.8,4.99,000.00,028.5,027.1,000.0,036.9,030.2,18.3,0000.0,0006.81,0002.72,0001.90
2023-10-01 12:21:00,SystemResetWarning,0826.8,5.00,000.00,028.5,027.1,000.0,036.9,030.2,18.2,0000.0,0006.52,0002.70,0001.92
2023-10-01 12:22:00,SystemResetWarning,0826.8,5.00,000.00,028.5,027.2,000.0,036.9,030.2,18.1,0000.0,0006.58,0002.66,0001.93
2023-10-01 12:23:00,SystemResetWarning,0826.9,5.00,000.00,028.5,027.2,000.0,036.9,030.2,18.0,0000.0,0006.64,0002.67,0001.93
2023-10-01 12:24:00,SystemResetWarning,0826.9,5.00,000.00,028.5,027.2,000.0,036.9,030.3,17.9,0000.0,0006.98,0002.70,0001.93
2023-10-01 12:25:00,SystemResetWarning,0826.9,5.00,000.00,028.6,027.3,000.0,036.9,030.3,18.0,0000.0,0006.60,0002.68,0001.94
2023-10-01 12:26:00,SystemResetWarning,0826.9,5.00,000.00,028.6,027.3,000.0,036.9,030.3,18.1,0000.0,0006.71,0002.71,0001.96
2023-10-01 12:27:00,SystemResetWarning,0826.8,5.00,000.00,028.6,027.3,000.0,037.0,030.3,18.2,0000.0,0007.11,0002.72,0001.97
2023-10-01 12:28:00,SystemResetWarning,0826.8,5.00,000.00,028.6,027.3,000.0,037.0,030.3,18.2,0000.0,0008.05,0002.81,0001.99
2023-10-01 12:29:00,SystemResetWarning,0826.8,5.00,000.00,028.6,027.4,000.0,037.0,030.4,18.1,0000.0,0008.16,0002.85,0001.99
2023-10-01 12:30:00,SystemResetWarning,0826.8,5.00,000.00,028.6,027.4,000.0,037.0,030.4,18.1,0000.0,0008.26,0002.91,0001.99
2023-10-01 12:31:00,SystemResetWarning,0826.9,5.01,000.00,028.7,027.4,000.0,037.0,030.4,18.1,0000.0,0008.23,0002.92,0002.00
2023-10-01 12:32:00,SystemResetWarning,0826.9,5.00,000.00,028.7,027.5,000.0,037.0,030.4,18.1,0000.0,0008.02,0002.86,0002.00
2023-10-01 12:33:00,SystemResetWarning,0826.9,5.00,000.00,028.7,027.5,000.0,037.0,030.4,18.3,0000.0,0008.04,0002.92,0002.02
2023-10-01 12:34:00,SystemResetWarning,0826.9,5.00,000.00,028.7,027.5,000.0,037.1,030.5,18.3,0000.0,0008.26,0002.94,0002.02
2023-10-01 12:35:00,SystemResetWarning,0826.9,4.99,000.00,028.7,027.5,000.0,037.1,030.5,18.3,0000.0,0008.11,0002.91,0002.03
2023-10-01 12:36:00,SystemResetWarning,0827.0,5.00,000.00,028.7,027.5,000.0,037.1,030.5,18.3,0000.0,0007.85,0002.93,0002.04
2023-10-01 12:37:00,SystemResetWarning,0827.0,5.00,000.00,028.8,027.5,000.0,037.1,030.5,18.3,0000.0,0007.85,0002.94,0002.05
2023-10-01 12:38:00,SystemResetWarning,0827.0,5.00,000.00,028.8,027.6,000.0,037.1,030.5,18.4,0000.0,0007.86,0002.94,0002.05
2023-10-01 12:39:00,SystemResetWarning,0827.0,5.00,000.00,028.8,027.6,000.0,037.1,030.5,18.3,0000.0,0006.86,0002.87,0002.05
2023-10-01 12:40:00,SystemResetWarning,0827.0,5.00,000.00,028.8,027.6,000.0,037.1,030.5,18.4,0000.0,0006.29,0002.83,0002.05
2023-10-01 12:41:00,SystemResetWarning,0827.0,5.00,000.00,028.8,027.6,000.0,037.2,030.5,18.4,0000.0,0007.26,0002.80,0002.06
2023-10-01 12:42:00,SystemResetWarning,0827.0,5.00,000.00,028.8,027.6,000.0,037.2,030.6,18.4,0000.0,0007.27,0002.81,0002.08
2023-10-01 12:43:00,SystemResetWarning,0827.1,5.00,000.00,028.8,027.6,000.0,037.2,030.6,18.5,0000.0,0007.76,0002.90,0002.09
2023-10-01 12:44:00,SystemResetWarning,0827.0,4.99,000.00,028.8,027.6,000.0,037.2,030.6,18.2,0000.0,0007.71,0002.93,0002.13
2023-10-01 12:45:00,SystemResetWarning,0827.0,4.99,000.00,028.9,027.6,000.0,037.2,030.6,18.1,0000.0,0007.42,0002.92,0002.17
2023-10-01 12:46:00,SystemResetWarning,0827.0,5.00,000.00,028.9,027.6,000.0,037.2,030.6,18.1,0000.0,0007.62,0002.95,0002.19
2023-10-01 12:47:00,SystemResetWarning,0827.0,5.00,000.00,028.9,027.3,000.0,037.2,030.6,18.3,0000.0,0007.68,0002.98,0002.21
2023-10-01 12:48:00,SystemResetWarning,0826.9,5.00,000.00,028.8,025.4,000.0,037.2,030.4,18.6,0000.0,0007.78,0003.05,0002.23
2023-10-01 12:49:00,SystemResetWarning,0827.0,5.00,000.00,028.8,024.5,000.0,037.1,030.3,18.9,0000.0,0007.80,0003.11,0002.25
2023-10-01 12:50:00,SystemResetWarning,0827.0,5.01,000.00,028.6,024.6,000.0,037.1,030.0,19.0,0000.0,0008.26,0003.10,0002.25
2023-10-01 12:51:00,SystemResetWarning,0826.9,5.00,000.00,028.5,024.9,000.0,037.1,029.9,19.1,0000.0,0008.29,0003.09,0002.26
2023-10-01 12:52:00,SystemResetWarning,0827.0,4.99,000.00,028.5,025.3,000.0,037.1,029.9,19.2,0000.0,0008.03,0003.08,0002.26
2023-10-01 12:53:00,SystemResetWarning,0827.0,5.01,000.00,028.4,025.6,000.0,037.1,029.9,19.3,0000.0,0007.80,0003.01,0002.26
2023-10-01 12:54:00,SystemResetWarning,0827.0,5.00,000.00,028.4,025.9,000.0,037.1,030.0,19.3,0000.0,0007.57,0002.96,0002.26
2023-10-01 12:55:00,SystemResetWarning,0826.9,5.00,000.00,028.4,026.2,000.0,037.0,030.0,19.3,0000.0,0007.56,0002.94,0002.23
2023-10-01 12:56:00,SystemResetWarning,0827.0,5.00,000.00,028.4,026.4,000.0,037.0,030.1,19.3,0000.0,0007.68,0002.97,0002.20
2023-10-01 12:57:00,SystemResetWarning,0826.9,5.00,000.00,028.4,026.6,000.0,037.0,030.1,19.3,0000.0,0007.59,0002.97,0002.20
2023-10-01 12:58:00,SystemResetWarning,0826.9,5.00,000.00,028.4,026.7,000.0,037.0,030.1,19.3,0000.0,0008.23,0002.97,0002.19
2023-10-01 12:59:00,SystemResetWarning,0826.9,5.00,000.00,028.4,026.8,000.0,037.0,030.2,19.3,0000.0,0008.74,0002.99,0002.20
